FENGYUN 1C DEB

Satellite information

Favourite Embed

Satellite Type and Status

DEBRISIN ORBIT

Key statistics

Satellite FENGYUN 1C DEB at a glance.

Uptime

9715

Days in orbit

Revolutions

≈ 14.6

Per day

Orbit

SSO

Sun Synchronous Orbit

Inclination

98.1

Latest

Satellite identification and parameters

Extended collection of information and parameters for FENGYUN 1C DEB.

Object identification

Identified? True

Debris? True

Object name: FENGYUN 1C DEB

International designator: 1999-025BCZ

Object number (NORAD): 31007

Object ID (CCSDS): 31007

Country: PEOPLES REPUBLIC OF CHINA (PRC)

Current information (Y/N): Y

RCS size: SMALL

Orbital parameters

Period: 98.72 minutes

Inclination: 98.0876 deg

SMA: 7075.619 km

Apoapsis: 745.212 km

Periapsis: 649.755 km

RAAN: 338.9995 deg

Eccentricy: 0.0067455

Argument of periapsis: 36.5937 deg

Mean anomaly: 323.9843 deg

Mean motion: 14.58666919 rev/day

Mean motion (dot): 0.00018241 rev/day2

B* drag term: 0.0037929171 1/REarth

Two-line elements (TLE)

Creation date: Dec. 13, 2025, 5:47 p.m.

Reference frame: TEME

Reference center: EARTH

Epoch: Dec. 13, 2025, 5:01 a.m. UTC

TLE line 0: 0 FENGYUN 1C DEB

TLE line 1: 1 31007U 99025BCZ 25347.20907833 .00018241 00000-0 37929-2 0 9997

TLE line 2: 2 31007 98.0876 338.9995 0067455 36.5937 323.9843 14.58666919981013

Live tracking on map

Real-time ground track for satellite FENGYUN 1C DEB.

In-orbit conjunctions

A list of the most updated potential collisions computed for object FENGYUN 1C DEB.

Target Orbit TCA Probability of collision Miss distance Type
IRIDIUM 33 DEB LEO 2025-09-26 09:15:17 0.0001748272 107.0 (m) DEBRIS
DELTA 1 R/B SSO 2025-05-28 06:04:38 0.000163641 109.0 (m) ROCKET BODY
GB 3 LEO 2024-06-04 05:19:20 0.0002407529 662.0 (m) PAYLOAD

Associated space launch

Chinese polar orbiting meteorological satellite

FENGYUN 1C DEB was lifted into orbit during the mission ‘Long March 4B | Feng Yun 1C’, on board a Long March 4B space rocket.

The launch took place on May 10, 1999, 1:33 a.m. from Launch Complex 7.

For more information about the launch, click the button.

Launch to space Long March 4B | Feng Yun 1C
Long March 4B | Feng Yun 1C

Agency: N/A

Status: Launch Successful

Launch date: May 10, 1999, 1:33 a.m. UTC

Rocket: Long March 4B

Launch pad: Launch Complex 7

Location: Taiyuan Satellite Launch Center, People's Republic of China

...

Latest news about this satellite

There are no fresh news available about this satellite. Check back as we update our databases every day.


Newsletter sign-up

Weekly statistics, charts and insights to help you stay on top of the space industry.